#timestamp,LO_Frequency,Hit,StdDev 
1541775615.0,286046998.9,N
1541775615.9,286046998.9,N
1541775635.8,286046998.4,N
1541775655.6,286047000.0,N
1541775675.5,286047000.6,N
1541775695.3,286047000.9,N
1541775715.1,286047001.1,N
1541775735.9,286046998.3,N
1541775755.7,286046999.2,N
1541775775.6,286046998.8,N
1541775795.4,286046999.0,N
1541775815.2,286046999.3,N
1541775835.1,286046998.4,N
1541775836.0,286046998.4,N
1541775855.8,286046998.1,N
1541775875.7,286047000.6,N
1541775895.5,286047002.6,N
1541775915.3,286047000.7,N
1541775935.2,286047000.9,N
1541775955.9,286047001.0,N
1541775975.7,286046998.5,N
1541775995.6,286046999.0,N
1541776015.4,286046999.0,N
1541776035.2,286046997.1,N
1541776055.1,286046995.3,Y
1541776056.0,286046995.3,P
1541776075.8,286046995.7,N
1541776095.7,286046995.2,N
1541776115.5,286046996.8,N
1541776135.3,286046996.6,N
1541776155.2,286046999.4,N
1541776175.0,286046999.2,N
1541776175.9,286046999.2,N
1541776195.8,286046999.6,N
1541776215.6,286046999.4,N
1541776235.4,286046996.6,N
1541776255.3,286046996.8,N
1541776275.1,286046996.9,N
1541776295.8,286046997.2,N
1541776315.7,286046996.5,N
1541776335.5,286046999.0,N
1541776355.3,286046998.8,N
1541776375.2,286046999.3,N
1541776395.0,286046998.7,N
1541776395.9,286046998.7,N
1541776415.8,286047001.0,N
1541776435.6,286046998.1,N
1541776455.4,286047000.9,N
1541776475.3,286047000.7,N
1541776495.1,286046998.3,N
1541776515.8,286047000.6,N
1541776535.7,286047001.2,N
1541776555.5,286047000.3,N
1541776575.4,286047001.2,N
1541776595.2,286047000.2,N
1541776615.0,286047000.9,N
1541776615.9,286047000.9,N
1541776635.8,286047000.5,N
1541776655.6,286047000.3,N
1541776675.4,286047001.2,N
1541776695.3,286047002.4,N
1541776715.1,286047000.2,N
1541776735.9,286047002.6,N
1541776755.7,286047002.3,N
1541776775.5,286047002.2,N
1541776795.4,286047002.2,N
1541776815.2,286047002.2,N
1541776835.0,286047001.8,N
1541776836.0,286047001.8,N
1541776855.8,286047004.0,N
1541776875.6,286047001.5,N
1541776895.5,286047004.0,N
1541776915.3,286047001.5,N
1541776935.1,286047002.5,N
1541776955.9,286047002.0,N
1541776975.7,286047001.5,N
1541776995.5,286047002.1,N
1541777015.4,286047001.5,N
1541777035.2,286047004.0,Y
1541777055.1,286047000.3,P
1541777056.0,286047000.3,N
1541777075.8,286046999.8,N
1541777095.6,286047001.1,N
1541777115.5,286046999.0,N
1541777135.3,286047000.7,N
1541777155.1,286047000.9,N
1541777175.9,286047000.3,N
1541777195.7,286047000.5,N
1541777215.6,286047000.9,N
1541777235.4,286047002.6,Y
1541777255.2,286047002.7,P
1541777275.1,286047000.2,N
1541777276.0,286047000.2,N
1541777295.8,286047000.6,N
1541777315.7,286047000.6,N
1541777335.5,286046999.7,N
1541777355.3,286047002.3,N
1541777375.2,286047002.7,N
1541777395.0,286047002.0,N
1541777395.9,286047002.0,N
1541777415.8,286047002.8,N
1541777435.6,286047002.6,N
1541777455.4,286047002.6,N
1541777475.3,286047001.6,N
1541777495.1,286047002.5,N
1541777496.0,286047002.5,N
1541777515.8,286047001.6,N
1541777535.7,286047002.1,N
1541777555.5,286047004.4,Y
1541777575.4,286047001.1,P
1541777595.2,286047001.2,P
1541777615.0,286046998.6,P
1541777615.9,286046998.6,N
1541777635.8,286046996.9,N
1541777655.6,286046997.0,N
1541777675.4,286046999.0,N
1541777695.3,286047001.1,N
1541777715.1,286047000.6,N
1541777735.9,286047000.7,N
1541777755.7,286047000.4,N
1541777775.5,286047000.9,N
1541777795.4,286047000.0,N
1541777815.2,286047000.9,N
1541777835.0,286046999.8,N
1541777835.9,286046999.8,N
1541777855.8,286046999.9,N
1541777875.6,286047000.9,N
1541777895.5,286046999.8,N
1541777915.3,286046999.8,N
1541777935.1,286047000.0,N
1541777955.9,286046999.8,N
1541777975.7,286047002.3,N
1541777995.6,286047001.6,N
1541778015.4,286047002.3,N
1541778035.2,286047002.5,N
1541778055.1,286047002.6,N
1541778056.0,286047002.6,N
1541778075.8,286047001.6,N
1541778095.6,286047004.4,Y
1541778115.5,286047004.1,P
1541778135.3,286047001.6,N
1541778155.2,286047002.1,N
1541778175.9,286047001.6,N
1541778195.7,286047001.8,N
1541778215.6,286047002.6,N
1541778235.4,286047002.6,N
1541778255.2,286047002.5,N
1541778275.1,286047001.4,N
1541778276.0,286047001.4,N
1541778295.8,286047001.3,N
1541778315.7,286047001.9,N
1541778335.5,286047002.2,N
1541778355.3,286046999.7,N
1541778375.2,286047000.7,N
1541778395.0,286047000.4,N
1541778395.9,286047000.4,N
1541778415.8,286047000.1,N
1541778435.6,286047000.2,N
1541778455.4,286047000.9,N
1541778475.3,286047001.0,N
1541778495.1,286047000.3,N
1541778515.8,286047000.0,N
1541778535.7,286047000.3,N
1541778555.5,286047000.1,N
1541778575.4,286047000.5,N
1541778595.2,286047000.1,N
1541778615.0,286047000.0,N
1541778615.9,286047000.0,N
1541778635.8,286047002.4,N
1541778655.6,286047002.3,N
1541778675.5,286047001.6,N
1541778695.3,286047002.1,N
1541778715.1,286047002.0,N
1541778735.9,286047001.9,N
1541778755.7,286047001.5,N
1541778775.6,286047003.6,Y
1541778795.4,286047002.0,P
1541778815.2,286047011.9,P
1541778835.1,286047002.1,N
1541778836.0,286047002.1,N
1541778855.8,286047004.0,N
1541778875.6,286047001.5,N
1541778895.5,286047001.3,N
1541778915.3,286047001.5,N
1541778935.2,286047002.8,N
1541778955.9,286047002.8,N
1541778975.7,286046999.7,N
1541778995.6,286047000.1,N
1541779015.4,286046999.9,N
1541779035.2,286047002.4,N
1541779055.1,286047002.0,N
1541779056.0,286047002.0,N
1541779075.8,286047002.2,N
1541779095.7,286047002.0,N
1541779115.5,286047004.3,N
1541779135.3,286047001.5,N
1541779155.2,286047001.4,N
1541779175.0,286047002.0,N
1541779175.9,286047002.0,N
1541779195.8,286047001.8,N
